Find Vladivostok-1

NORAD ID: 61750 Int'l Des: NNA 2024-199 Owner: DVFU Country: RU operational
LEOCIRCULARRETROGRADESSO

实时位置

正在加载3D地球...

关于 Vladivostok-1

正在加载描述...

即将过境

Passes for default location (London). Set your location on the main map for personalized predictions.

高度历史

Loading altitude history...

两行轨道根数

1 61750U 24199R 26104.93182545 .00021372 00000-0 36890-3 0 9998
2 61750 97.3060 339.5355 0008945 146.2092 213.9732 15.50988017127730
Epoch: Apr 14, 2026 • Age: 11 hours

当前状态

高度 421.5 km
速度 7.66 km/s
星下点 43.35°N, 11.32°W
发射日期 Nov 4, 2024
运行时间 1.4 years
类型 other

技术详情

分类 Payload
质量 10.00 kg
干质量 10.00 kg
总质量 10.00 kg
长度 0.30 m
直径 0.20 m
跨度 0.30 m
形状 Box
制造商 DVFU/STTS
平台类型 Cubesat 8U
阶段状态 In Orbit
所有者/国家 DVFU/RU

Most Searched